Showing default

KAZEOSAT 2, 40010

Orbit data source: Space-Track

KAZEOSAT 2, 40010 is a payload satellite owned by Kazkosmos (KZ) in SSO that was launched on Thu, 19 Jun 2014 UTC via a DNEPR launch vehicle from the Orenburg, Russia (OREN). Payload-class satellites include a variety of spacecraft equipped with specific instruments for various scientific and technological missions. These include communications satellites like Starlink; space stations such as the ISS; scientific satellites like the Hubble; Earth observation satellites from companies like Planet Labs, Umbra, and HawkEye 360; GPS; miniature CubeSats for education and research; and military/defense satellites.

Loading next visibility...
Identifier
40010, 2014-033A
Orbit
SSO
Country
Flag of KZKZ / KAZ
Related business
Manufacturer
SSTL (Astrium)
Mission
Operational Civil Imaging
Bus & Motor
SSTL-150, AOCS
Mass
177 kg wet, 177 kg dry
Launch date (UTC)
2014-06-19 (12 years ago)
Launch vehicle
DNEPR
Launch site
Orenburg, Russia (OREN)
Object type
Payload
Rocket body
Debris
Shape & HBR
Box, 1.5 m
Radar Cross Section
1.500 m², Medium (>0.1 m² and < 1m²)

Expand to show TLE details & history
Last TLE update: 4 hours ago

TLE from 4 hours ago
0 KAZEOSAT 2
1 40010U 14033A   26125.52284279  .00001120  00000-0  13574-3 0  9998
2 40010  97.5433 327.3830 0010154  98.0870 262.1498 14.85421955642623
Epoch: 2026-05-05T12:32Z
TLE epoch observation values (Epoch: 2026-05-05T12:32:53.617Z)
Latitude
-0.00002°
Longitude
-84.23687°
Altitude
616.278 km
Speed
7.55 km/s
True Right ascension
21h 49m 31s
True Declination
0° 00' 00"
Sunlit
Object was in daylight at epoch
Visualization orbit readout
Latitude
Unknown
Longitude
Unknown
Altitude
Unknown
Speed
Unknown
Apparent Right ascension
Unknown
Apparent Declination
Unknown
Sunlit
N/A
Visualization observer readout
Local Sidereal Time
00:46:15
Azimuth
Unknown
Elevation
Unknown
Doppler factor
Unknown
Orbital elements
Apogee altitude
616.375 km
Perigee altitude
602.185 km
Semi-major axis
6,987.417 km
Eccentricity
0.00102
Inclination
97.5433°
RAAN
327.383°
Arg. of periapsis
98.087°
True anomaly
262.03455°
Mean anomaly
262.1498°
Eccentric anomaly
262.09218°
Mean motion
3.71594 °/min
Orbital period
96.88 mins
BSTAR
0.00013574
Loading maneuver chart data...
Computing Atmospheric mass density...
Loading historical data...
Loading historical data...
Loading historical data...
Loading historical data...
Loading historical data...
Loading historical data...
Loading historical data...

Documentation

Showing up to 5 results
|